Flag for Poland Weather past 2 weeks in Częstochowa, Poland

Now
75 °F

Passing clouds.


Feels Like: 78 °F
Forecast: 52 / 78 °F
Wind: 6 mph from North

Location: Katowice Airport

Current Time: Jul 1, 2015 at 5:51:34 PM

Latest Report: Jul 1, 2015 at 5:30 PM


Visibility: N/A

Pressure: 30.21 "Hg

Humidity: 44%

Dew point: 52 °F

Location of CzęstochowaLocation

Historic Weather in Częstochowa — Graph

°F

Częstochowa temperature yesterday

Maximum temperature yesterday: 75 °F (at 4:00 PM)
Minimum temperature yesterday: 43 °F (at 5:00 AM)
Average temperature yesterday: 62 °F

Past Weeks' High & Low Weather Summary

 TemperatureHumidityPressure
High77 °F (Jul 1, 3:00 PM)100% (Jun 18, 12:30 AM)30.24 "Hg (Jun 18, 12:30 AM)
Low39 °F (Jun 20, 4:30 AM)39% (Jun 30, 4:00 PM)29.74 "Hg (Jun 23, 3:30 AM)
Average58 °F76%30.03 "Hg
* Reported Jun 16 5:00 PM — Jul 1 5:00 PM, Częstochowa, Weather by CustomWeather, © 2015

Note: Actual official high and low records may vary slightly from our data, if they occured in-between our weather recording intervals... More about our weather records

Advertising

Częstochowa weather history for previous 24 hours

 ConditionsComfort  
Time TempWeatherWind HumidityBarometerVisibility
5:00 PM
Wed, Jul 1
75 °FPassing clouds.7 mph44%30.21 "HgN/A
4:30 PM77 °FPassing clouds.7 mph42%30.21 "HgN/A
4:00 PM75 °FPassing clouds.6 mph44%30.21 "HgN/A
3:30 PM77 °FPassing clouds.7 mph44%30.21 "HgN/A
3:00 PM77 °FSunny.5 mph42%30.21 "Hg10 mi
2:30 PM73 °FPassing clouds.6 mph47%30.21 "HgN/A
2:00 PM75 °FPassing clouds.6 mph47%30.21 "HgN/A
1:30 PM75 °FPassing clouds.7 mph47%30.21 "HgN/A
1:00 PM75 °FPassing clouds.8 mph39%30.21 "HgN/A
12:30 PM72 °FScattered clouds.7 mph50%30.21 "HgN/A
12:00 PM72 °FScattered clouds.6 mph53%30.21 "HgN/A
11:30 AM72 °FScattered clouds.8 mph53%30.21 "HgN/A
11:00 AM73 °FPassing clouds.5 mph50%30.21 "HgN/A
10:30 AM72 °FPassing clouds.6 mph50%30.21 "HgN/A
10:00 AM72 °FScattered clouds.6 mph57%30.21 "HgN/A
9:30 AM72 °FPassing clouds.5 mph61%30.21 "HgN/A
9:00 AM70 °FPassing clouds.3 mph60%30.21 "HgN/A
8:30 AM68 °FSunny.2 mph69%30.21 "Hg10 mi
8:00 AM66 °FPassing clouds.3 mph73%30.18 "HgN/A
7:30 AM63 °FSunny.2 mph83%30.18 "Hg10 mi
7:00 AM63 °FSunny.1 mph83%30.18 "Hg10 mi
6:30 AM57 °FClear.No wind88%30.18 "Hg5 mi
6:00 AM54 °FFog.2 mph94%30.18 "Hg5 mi
5:30 AM52 °FFog.2 mph100%30.18 "Hg3 mi
5:00 AM52 °FCool.2 mph100%30.18 "Hg3 mi
4:30 AM52 °FCool.1 mph94%30.18 "Hg2 mi
4:00 AM52 °FCool.No wind100%30.15 "Hg2 mi
3:30 AM54 °FFog.3 mph94%30.15 "Hg3 mi
3:00 AM55 °FFog.3 mph94%30.15 "Hg4 mi
2:30 AM55 °FClear.1 mph94%30.15 "Hg10 mi
2:00 AM59 °FClear.2 mph88%30.15 "Hg10 mi
1:30 AM57 °FClear.5 mph94%30.15 "Hg10 mi
1:00 AM57 °FClear.1 mph94%30.15 "Hg10 mi
12:30 AM59 °FClear.2 mph88%30.15 "Hg10 mi
12:00 AM59 °FClear.1 mph88%30.15 "Hg10 mi
11:30 PM
Tue, Jun 30
59 °FClear.3 mph88%30.15 "Hg10 mi
11:00 PM61 °FClear.2 mph88%30.15 "Hg10 mi
10:30 PM61 °FClear.2 mph88%30.15 "Hg10 mi
10:00 PM61 °FClear.2 mph83%30.15 "Hg10 mi
9:30 PM61 °FSunny.2 mph83%30.15 "Hg10 mi
9:00 PM63 °FPassing clouds.3 mph77%30.15 "HgN/A
8:30 PM64 °FPassing clouds.2 mph73%30.15 "HgN/A
8:00 PM64 °FPassing clouds.7 mph78%30.15 "HgN/A
7:00 PM70 °FSprinkles. Partly sunny.13 mph60%30.15 "HgN/A
6:30 PM73 °FPassing clouds.1 mph41%30.12 "HgN/A
6:00 PM73 °FPassing clouds.1 mph44%30.12 "HgN/A
5:00 PM75 °FPassing clouds.3 mph41%30.12 "HgN/A
Weather by CustomWeather, © 2015

See weather overviewHow to use our weather pages